Hourly Data Report for October 14, 2015

All times are specified in Local Standard Time (LST). Add 1 hour to adjust for Daylight Saving Time where and when it is observed.

KITCHENER/WATERLOO
ONTARIO

43°27'39.000" N
80°22'43.000" W
321.60 m
6144239
71368
YKF

Download Data

Hourly Data (October 2015)
Hourly Data Report for October 14, 2015
Temp Definition
°C
Dew Point Temp Definition
°C
Rel Hum Definition
%
Wind Dir Definition
10's deg

Wind Spd Definition
km/h
Visibility Definition
km
Stn Press Definition
kPa
Hmdx Definition


Wind Chill Definition


Weather Definition


TIME
00:00 Legend Double Dagger 9.2 8.0 92 29 24 16.1 96.64     LegendNANA
01:00 Legend Double Dagger 9.0 7.8 92 28 21 16.1 96.68     LegendNANA
02:00 Legend Double Dagger 9.1 7.6 90 29 22 16.1 96.72     LegendNANA
03:00 Legend Double Dagger 8.4 7.2 92 29 17 16.1 96.73     LegendNANA
04:00 Legend Double Dagger 8.6 7.7 94 30 11 11.3 96.78     Rain
05:00 Legend Double Dagger 8.3 7.4 94 30 18 11.3 96.84     LegendNANA
06:00 Legend Double Dagger 7.9 7.2 95 31 13 16.1 96.92     LegendNANA
07:00 Legend Double Dagger 7.6 6.3 92 30 17 16.1 96.99     LegendNANA
08:00 Legend Double Dagger 8.0 6.8 92 30 8 16.1 97.07     LegendNANA
09:00 Legend Double Dagger 7.9 6.7 92 34 15 12.9 97.16     LegendNANA
10:00 Legend Double Dagger 8.7 5.9 83 30 18 16.1 97.22     LegendNANA
11:00 Legend Double Dagger 9.2 5.6 78 30 22 16.1 97.27     LegendNANA
12:00 Legend Double Dagger 9.5 4.8 72 30 13 16.1 97.29     LegendNANA
13:00 Legend Double Dagger 10.1 3.6 64 30 28 16.1 97.26     LegendNANA
14:00 Legend Double Dagger 9.6 4.1 68 31 22 16.1 97.31     LegendNANA
15:00 Legend Double Dagger 10.3 3.4 62 30 24 16.1 97.31     LegendNANA
16:00 Legend Double Dagger 9.9 3.2 63 31 13 16.1 97.38     LegendNANA
17:00 Legend Double Dagger 9.2 2.7 64 31 22 16.1 97.41     LegendNANA
18:00 Legend Double Dagger 8.0 2.6 69 32 15 16.1 97.46     LegendNANA
19:00 Legend Double Dagger 7.1 3.0 75 30 8 16.1 97.53     LegendNANA
20:00 Legend Double Dagger 6.7 2.7 76 29 11 16.1 97.57     LegendNANA
21:00 Legend Double Dagger 4.3 2.8 90 25 5 16.1 97.59     LegendNANA
22:00 Legend Double Dagger 3.2 2.3 94 23 5 16.1 97.57     LegendNANA
23:00 Legend Double Dagger 2.8 2.4 97 22 8 16.1 97.56     LegendNANA

Notes on Data Quality.

Legend

  • E = Estimated
  • M = Missing
  • NA = Not Available
  • ‡ = Partner data that is not subject to review by the National Climate Archives
Date modified: